Location: Unspecified
(41.1637°N, 24.2901°E)
Time: 22:16:35
(UTC+01:00)

ISS - Pass Details

Date: 01 December 2024
Orbit: 411 x 421 km, 51.6° (Epoch: 02 December)

Event Time Altitude Azimuth Distance (km) Brightness Sun altitude
Rises 18:34:48 0° 292° (WNW) 2,371 1.0 -29.5°
Reaches altitude 10° 18:37:22 10° 272° (W) 1,502 0.0 -30.0°
Enters shadow 18:38:27 15° 256° (WSW) 1,242 -0.6 -30.2°
